Starlink 30548

operational
NORAD ID: 58046 Int'l Des: 2023-156 Owner: SPXS Country: US Constellation: starlink
LEOCIRCULAR

Über Starlink 30548

Beschreibung wird geladen...

Live-Position

3D-Globus wird geladen...

Nächste Überflüge

Höhenverlauf

Altitude vs Time

uPlot chart will show altitude changes over time

Zweizeiliger Elementsatz

1 58046U 23156U 25259.25002315 -.00002692 00000-0 -78909-4 0 9999
2 58046 53.1585 258.4544 0001377 90.4987 321.7758 15.30155437 5764
Epoch: 16. Sept. 2025 • Age: 5 hours

Aktueller Status

Höhe 480.7 km
Geschwindigkeit 7.63 km/s
Subsatellitenpunkt 51.91°N, 153.77°W
Startdatum 9. Okt. 2023
Alter 1.9 years
Typ internet

Technische Details

Klassifizierung Payload
Masse 730.00 kg
Trockenmasse 700.00 kg
Gesamtmasse 730.00 kg
Länge 0.30 m
Durchmesser 4.10 m
Spannweite 29.00 m
Form Box + pan
Hersteller SPXS
Bus-Typ Starlink V2M
Phasenstatus In Orbit
Besitzer/Staat SPXS/US

Große Konstellationen

Loading constellations...